Hlavní strana
METAR-TAF:

METAR-TAF

Letiště :

Rock Hill/York County Airport (Bryant Field)

Rock Hill, Jižní Karolína, Spojené státy americké

zeměpisná šířka: 34-59-02N, zeměpisná délka: 081-03-21W, výška: 204 m

Aktuální stav počasí

Zpráva byla vytvořena před 11 minutami, v 18:54 UTC
Severoseverovýchodní vítr 8 kt
Teplota 7°C
Vlhkost vzduchu 76%
Tlak 1020 hPa
Viditelnost: 16.1 km
Zataženo ve výšce 10000 ft

METAR: KUZA 151854Z AUTO 02008KT 10SM OVC100 07/03 A3011 RMK AO2 RAE48 SLP202 P0000 T00670033

Čas: 14:05 (19:05 UTC)


TAF: chybějící

Stav a předpovědi počasí z více než 4 000 letišť (zprávy METAR a TAF).

Červené a žluté tečky na mapě představují dostupné meteorologické stanice.

Když kurzor umístíte na tečku, zobrazí se název stanice.

Pak kliknutím zobrazíte stav a předpověď počasí.

Chcete-li změnit mapu, kliknutím na zelené tlačítko se znaménkem +mapu přiblížíte, kliknutím na zelené tlačítko se znaménkem – mapu oddálíte a kliknutím na zelené šipky přejdete na sousední mapy.


METAR-TAF: